This is the latest recevied weather packets stored in our database for station/object SA7BGG-5. If no packets are shown the sender has not sent any weather packets the latest 10 day(s).
| Time | Temp. | Humidity | Pressure | Rain* | Wind** | Luminosity | Snow |
|---|---|---|---|---|---|---|---|
| 1777559405 | 22.22° C | 34% | 1031 hPa | - | - | - | - |
| 1777559105 | 21.67° C | 34% | 1031 hPa | - | - | - | - |
| 1777557903 | 22.22° C | 34% | 1031 hPa | - | - | - | - |
| 1777556101 | 22.22° C | 33% | 1032 hPa | - | - | - | - |
| 1777555800 | 22.22° C | 33% | 1032 hPa | - | - | - | - |
| 1777555500 | 22.22° C | 34% | 1032 hPa | - | - | - | - |
| 1777555205 | 22.22° C | 34% | 1032 hPa | - | - | - | - |
| 1777554905 | 21.67° C | 33% | 1032 hPa | - | - | - | - |
| 1777554304 | 21.67° C | 33% | 1032 hPa | - | - | - | - |
| 1777552502 | 21.67° C | 32% | 1032 hPa | - | - | - | - |
| 1777551901 | 21.67° C | 33% | 1032 hPa | - | - | - | - |
| 1777551601 | 21.67° C | 33% | 1032 hPa | - | - | - | - |
| 1777550104 | 20.56° C | 36% | 1033 hPa | - | - | - | - |
| 1777548903 | 20.56° C | 35% | 1033 hPa | - | - | - | - |
| 1777548302 | 20.56° C | 34% | 1033 hPa | - | - | - | - |
| 1777548002 | 20.56° C | 34% | 1033 hPa | - | - | - | - |
| 1777547100 | 20.56° C | 39% | 1033 hPa | - | - | - | - |
| 1777546800 | 20.56° C | 39% | 1033 hPa | - | - | - | - |
| 1777546505 | 20° C | 39% | 1033 hPa | - | - | - | - |
| 1777545003 | 20° C | 38% | 1033 hPa | - | - | - | - |
| 1777544703 | 19.44° C | 37% | 1033 hPa | - | - | - | - |
| 1777544402 | 19.44° C | 37% | 1033 hPa | - | - | - | - |
| 1777544102 | 19.44° C | 39% | 1033 hPa | - | - | - | - |
| 1777543802 | 19.44° C | 39% | 1033 hPa | - | - | - | - |
| 1777543502 | 18.89° C | 39% | 1033 hPa | - | - | - | - |
* Rain since midnight (hover to see other rain measurements)
** Current wind speed in m/s (hover to see current wind gust speed)